Location: Auckland
(36.8670°S, 174.7670°E)
Time: 06:39:26
(UTC+13:00)

ISS - Pass Details

Date: 29 January 2019
Orbit: 403 x 411 km, 51.6° (Epoch: 20 February)

Event Time Altitude Azimuth Distance (km) Brightness Sun altitude
Exits shadow 04:42:01 22° 36° (NE) 958 -2.0 -19.3°
Maximum altitude 04:42:28 23° 49° (NE) 940 -2.0 -19.3°
Drops below altitude 10° 04:45:10 10° 103° (ESE) 1,490 -0.1 -18.9°
Sets 04:47:32 0° 118° (ESE) 2,358 1.6 -18.5°
